Location: Festilli
(46.4000°N, 11.6667°E)
Time: 16:06:04
(UTC+00:00)

CZ-2C R/B - Pass Details

Date: 03 March 2021
Orbit: 703 x 908 km, 98.1° (Epoch: 17 April)

Event Time Altitude Azimuth Distance (km) Brightness Sun altitude
Rises 17:20:18 0° 166° (SSE) 3,509 6.3 -3.9°
Reaches altitude 10° 17:22:44 10° 167° (SSE) 2,560 5.6 -4.3°
Maximum altitude 17:28:29 86° 256° (WSW) 881 3.4 -5.3°
Drops below altitude 10° 17:34:01 10° 346° (NNW) 2,471 5.8 -6.3°
Sets 17:36:20 0° 347° (NNW) 3,380 6.5 -6.7°
